TimeEST,TemperatureF,Dew PointF,Humidity,Sea Level PressureIn,VisibilityMPH,Wind Direction,Wind SpeedMPH,Gust SpeedMPH,PrecipitationIn,Events,Conditions,WindDirDegrees,DateUTC
12:53 AM,54.0,46.9,77,30.13,10.0,WNW,8.1,-,N/A,,Clear,300,2012-12-30 05:53:00
1:53 AM,53.1,46.0,77,30.15,10.0,NW,11.5,-,N/A,,Clear,310,2012-12-30 06:53:00
2:53 AM,50.0,45.0,83,30.17,10.0,NW,6.9,-,N/A,,Clear,320,2012-12-30 07:53:00
3:53 AM,50.0,44.1,80,30.18,10.0,NW,8.1,-,N/A,,Clear,320,2012-12-30 08:53:00
4:53 AM,48.0,42.1,80,30.19,10.0,NW,11.5,-,N/A,,Clear,320,2012-12-30 09:53:00
5:53 AM,46.0,39.9,79,30.22,10.0,NNW,9.2,-,N/A,,Partly Cloudy,340,2012-12-30 10:53:00
6:37 AM,44.6,37.4,76,30.25,10.0,NW,9.2,19.6,N/A,,Mostly Cloudy,320,2012-12-30 11:37:00
6:53 AM,45.0,37.0,74,30.25,10.0,NW,9.2,-,N/A,,Mostly Cloudy,320,2012-12-30 11:53:00
7:53 AM,44.1,36.0,73,30.28,10.0,NW,12.7,19.6,N/A,,Overcast,320,2012-12-30 12:53:00
8:51 AM,46.4,35.6,66,30.29,10.0,NW,11.5,-,N/A,,Scattered Clouds,320,2012-12-30 13:51:00
8:53 AM,46.0,36.0,68,30.29,10.0,NW,10.4,-,N/A,,Scattered Clouds,310,2012-12-30 13:53:00
9:15 AM,46.4,37.4,71,30.30,10.0,NW,10.4,-,N/A,,Mostly Cloudy,320,2012-12-30 14:15:00
9:53 AM,50.0,39.9,68,30.31,10.0,NNW,6.9,-,N/A,,Mostly Cloudy,330,2012-12-30 14:53:00
10:53 AM,54.0,43.0,66,30.32,10.0,NW,9.2,16.1,N/A,,Overcast,320,2012-12-30 15:53:00
11:53 AM,57.0,46.9,69,30.31,10.0,NW,10.4,16.1,N/A,,Overcast,320,2012-12-30 16:53:00
12:53 PM,59.0,48.9,69,30.28,10.0,North,9.2,-,N/A,,Overcast,360,2012-12-30 17:53:00
1:53 PM,59.0,48.9,69,30.28,10.0,North,9.2,-,N/A,,Overcast,360,2012-12-30 18:53:00
2:53 PM,60.1,48.9,67,30.28,10.0,North,10.4,19.6,N/A,,Overcast,350,2012-12-30 19:53:00
3:03 PM,60.8,50.0,68,30.28,10.0,North,8.1,16.1,N/A,,Overcast,350,2012-12-30 20:03:00
3:53 PM,62.1,48.9,62,30.28,10.0,North,12.7,20.7,N/A,,Overcast,360,2012-12-30 20:53:00
4:53 PM,62.1,51.1,67,30.28,10.0,North,6.9,-,N/A,,Overcast,360,2012-12-30 21:53:00
5:53 PM,62.1,51.1,67,30.29,10.0,NNE,6.9,-,N/A,,Overcast,30,2012-12-30 22:53:00
6:53 PM,63.0,50.0,63,30.29,10.0,NE,4.6,-,N/A,,Overcast,40,2012-12-30 23:53:00
7:53 PM,64.9,52.0,63,30.29,10.0,ENE,5.8,-,N/A,,Overcast,60,2012-12-31 00:53:00
8:53 PM,64.9,50.0,58,30.30,10.0,ENE,9.2,16.1,N/A,,Overcast,70,2012-12-31 01:53:00
9:53 PM,64.0,50.0,60,30.31,10.0,East,12.7,-,N/A,,Overcast,90,2012-12-31 02:53:00
10:53 PM,64.0,51.1,63,30.31,10.0,East,5.8,-,N/A,,Mostly Cloudy,80,2012-12-31 03:53:00
11:53 PM,64.9,51.1,61,30.31,10.0,East,8.1,-,N/A,,Overcast,90,2012-12-31 04:53:00